Content
SEND FEEDBACK

Daily
Averages
Monthly
Summary
United States of America

WATERSMEET, MICHIGAN


Home > North America > United States > Michigan
Elevation: 1610 feet     Latitude: 46 17N     Longitude: 089 10W

WEATHER
 
SELECT A DAY
Number of Records: 235,259;   Date Range: 1/25/05 - 9/30/14
 
SHARE

PRINT THIS DATA

[ ← Previous Day ]
WEATHER ALMANAC - JUNE 9, 2014
[ Next Day → ]
[ °C ]   °F
Weather ElementAverageHighLow
Temperature54.2 °F67.1 °F (4:55 pm)39.2 °F (4:15 am)
Dewpoint42.8 °F51.6 °F (8:35 pm)33.6 °F (9:55 am)
Humidity70.3 %100 % (5:35 am)36 % (10:55 am)
Barometer30.08 in30.13 in (12:35 am)30.03 in (6:55 pm)
Wind Speed1.1 mph6.9 mph (9:35 am)
Weather ElementAverage
Visibility9.8 mi
Wind DirectionNE (46.9 °)

Weather ElementTotal
Precipitation---
Heating Degree Days11.9 (Base 65)
Growing Degree Days3.2 (Base 50)
Averaged from 67 records on June 9, 2014
WEATHER CONDITIONS BREAKOUT
WIND DIRECTION BREAKOUT
WEATHER BY HOUR - JUNE 9, 2014
[ °C ]   °F
Local TimeTemperatureDewpointHumidityBarometerVisibilityWind DirectionWind SpeedGust SpeedPrecipitationEventsConditions
12:35 AM47.7 °F43.5 °F86 %30.13 in10.0 miCalmClear
12:55 AM47.3 °F42.6 °F84 %30.12 in10.0 miCalmClear
1:15 AM45.5 °F43.3 °F92 %30.12 in10.0 miCalmClear
1:35 AM44.6 °F43.0 °F94 %30.11 in10.0 miCalmClear
1:55 AM43.9 °F42.6 °F95 %30.11 in10.0 miCalmClear
2:15 AM42.8 °F41.9 °F97 %30.11 in10.0 miCalmClear
2:35 AM42.1 °F41.4 °F97 %30.11 in10.0 miCalmClear
2:55 AM41.0 °F40.1 °F97 %30.10 in10.0 miCalmClear
3:15 AM41.2 °F40.6 °F98 %30.10 in10.0 miCalmClear
3:35 AM40.3 °F39.9 °F99 %30.10 in10.0 miCalmClear
3:55 AM39.9 °F39.6 °F99 %30.10 in10.0 miCalmClear
4:15 AM39.2 °F38.7 °F98 %30.10 in10.0 miCalmClear
4:35 AM39.9 °F39.7 °F99 %30.10 in10.0 miCalmClear
4:55 AM40.1 °F39.7 °F99 %30.10 in10.0 miCalmClear
5:15 AM39.9 °F39.4 °F98 %30.10 in10.0 miCalmClear
5:35 AM40.8 °F40.8 °F100 %30.10 in10.0 miCalmClear
5:55 AM43.0 °F42.6 °F99 %30.10 in10.0 miCalmClear
6:15 AM44.4 °F44.1 °F99 %30.10 in10.0 miCalmClear
6:35 AM46.9 °F45.3 °F94 %30.10 in10.0 miCalmClear
6:55 AM48.2 °F46.6 °F94 %30.10 in10.0 miCalmClear
7:15 AM50.0 °F45.3 °F84 %30.10 in10.0 miCalmClear
7:35 AM51.1 °F44.4 °F78 %30.11 in10.0 miCalmClear
7:55 AM53.1 °F42.3 °F67 %30.11 in10.0 miCalmClear
8:15 AM54.7 °F39.6 °F57 %30.10 in10.0 miCalmClear
8:35 AM56.1 °F37.0 °F49 %30.11 in10.0 miSSE (160°)3.5 mphClear
8:55 AM57.4 °F36.0 °F45 %30.10 in10.0 miCalmClear
9:15 AM58.5 °F34.2 °F40 %30.10 in10.0 miSSE (150°)4.6 mphClear
9:35 AM61.0 °F34.2 °F37 %30.10 in10.0 miSouth (170°)6.9 mphScattered Clouds
9:55 AM60.1 °F33.6 °F37 %30.10 in10.0 miSouth (170°)6.9 mphScattered Clouds
10:15 AM60.3 °F37.0 °F42 %30.09 in10.0 miSE (140°)4.6 mphClear
10:35 AM61.0 °F35.6 °F39 %30.09 in10.0 miSouth (180°)5.8 mphMostly Cloudy
10:55 AM61.2 °F34.2 °F36 %30.09 in10.0 miSSE (160°)3.5 mphOvercast
11:35 AM61.2 °F36.5 °F40 %30.09 in10.0 miSW (220°)3.5 mphRainLight Rain
11:55 AM60.4 °F38.8 °F45 %30.10 in10.0 miWSW (250°)3.5 mphRainLight Rain
12:15 PM59.9 °F41.5 °F51 %30.10 in10.0 miCalmLight Drizzle
12:35 PM59.9 °F43.2 °F54 %30.09 in10.0 miCalmRainLight Rain
12:55 PM60.8 °F44.8 °F56 %30.07 in10.0 miESE (120°)4.6 mphRainLight Rain
1:15 PM62.2 °F42.8 °F49 %30.07 in10.0 miCalmMostly Cloudy
1:35 PM61.0 °F43.3 °F52 %30.07 in10.0 miCalmOvercast
2:35 PM65.5 °F40.6 °F40 %30.05 in10.0 miSW (220°)4.6 mphMostly Cloudy
2:55 PM65.1 °F41.2 °F42 %30.06 in10.0 miSW (230°)5.8 mphOvercast
3:15 PM65.3 °F43.5 °F45 %30.05 in10.0 miCalmOvercast
3:35 PM65.5 °F43.2 °F44 %30.05 in10.0 miWSW (240°)3.5 mphOvercast
4:15 PM65.7 °F45.1 °F47 %30.05 in10.0 miCalmOvercast
4:35 PM65.5 °F45.0 °F47 %30.04 in10.0 miWest (280°)3.5 mphOvercast
4:55 PM67.1 °F46.2 °F47 %30.04 in10.0 miCalmOvercast
5:15 PM66.6 °F45.3 °F46 %30.04 in10.0 miSSW (210°)5.8 mphMostly Cloudy
5:35 PM65.8 °F45.1 °F47 %30.05 in10.0 miWSW (240°)4.6 mphMostly Cloudy
5:55 PM66.0 °F44.4 °F46 %30.04 in10.0 miCalmMostly Cloudy
6:15 PM65.7 °F45.3 °F48 %30.04 in10.0 miCalmMostly Cloudy
6:35 PM64.9 °F46.0 °F50 %30.04 in10.0 miCalmOvercast
6:55 PM66.4 °F45.0 °F46 %30.03 in10.0 miCalmMostly Cloudy
7:15 PM65.5 °F43.7 °F45 %30.03 in10.0 miCalmScattered Clouds
7:35 PM65.3 °F46.8 °F51 %30.03 in10.0 miCalmClear
7:55 PM64.0 °F46.8 °F53 %30.03 in10.0 miCalmClear
8:15 PM62.4 °F49.1 °F62 %30.03 in7.0 miCalmClear
8:35 PM57.0 °F51.6 °F82 %30.03 in10.0 miCalmClear
8:55 PM54.5 °F50.0 °F85 %30.04 in10.0 miCalmClear
9:15 PM52.7 °F49.3 °F88 %30.04 in10.0 miCalmClear
9:35 PM50.5 °F49.1 °F95 %30.04 in10.0 miCalmClear
9:55 PM49.5 °F48.4 °F96 %30.04 in10.0 miCalmClear
10:15 PM48.6 °F47.5 °F96 %30.05 in10.0 miCalmClear
10:35 PM48.2 °F47.5 °F97 %30.05 in10.0 miCalmClear
10:55 PM47.7 °F46.9 °F97 %30.05 in10.0 miCalmClear
11:15 PM46.8 °F46.0 °F97 %30.05 in7.0 miCalmClear
11:35 PM46.8 °F46.4 °F99 %30.05 in7.0 miCalmClear
11:55 PM45.0 °F44.6 °F99 %30.05 in7.0 miCalmClear
Hourly data recorded from KLNL, located miles away from Watersmeet, Michigan







STORIES FROM OUR PARTNERS